This is the latest recevied weather packets stored in our database for station/object KT5AL. If no packets are shown the sender has not sent any weather packets the latest 10 day(s).
| Time | Temp. | Humidity | Pressure | Rain* | Wind** | Luminosity | Snow |
|---|---|---|---|---|---|---|---|
| 1777088107 | 20.56° C | 97% | 1006 hPa | 0 mm | - | - | - |
| 1777087804 | 20.56° C | 96% | 1006 hPa | 0 mm | - | - | - |
| 1777087507 | 20.56° C | 97% | 1006 hPa | 0 mm | - | - | - |
| 1777087205 | 20.56° C | 97% | 1006 hPa | 0 mm | - | - | - |
| 1777086908 | 20.56° C | 96% | 1005.6 hPa | 0 mm | - | - | - |
| 1777086610 | 21.11° C | 96% | 1005.6 hPa | 0 mm | - | - | - |
| 1777086335 | 21.11° C | 95% | 1005.6 hPa | 0 mm | - | - | - |
| 1777086005 | 21.11° C | 94% | 1005.6 hPa | 0 mm | - | - | - |
| 1777085708 | 21.67° C | 93% | 1005.3 hPa | 0 mm | - | - | - |
| 1777085405 | 21.67° C | 91% | 1005.3 hPa | 0 mm | - | - | - |
| 1777085108 | 21.67° C | 89% | 1005.3 hPa | 0 mm | - | - | - |
| 1777084804 | 22.22° C | 84% | 1005.3 hPa | 0 mm | - | - | - |
| 1777084508 | 22.78° C | 78% | 1004.9 hPa | 0 mm | - | - | - |
| 1777084204 | 23.33° C | 74% | 1004.9 hPa | 0 mm | - | - | - |
| 1777083907 | 23.89° C | 69% | 1004.6 hPa | 0 mm | - | - | - |
| 1777083604 | 23.89° C | 66% | 1004.6 hPa | 0 mm | - | - | - |
| 1777083308 | 24.44° C | 67% | 1004.6 hPa | 0 mm | - | - | - |
| 1777083004 | 23.89° C | 67% | 1004.6 hPa | 0 mm | - | - | - |
| 1777082705 | 23.89° C | 68% | 1004.3 hPa | 0 mm | - | - | - |
| 1777082402 | 23.89° C | 66% | 1004.3 hPa | 0 mm | - | - | - |
| 1777082106 | 24.44° C | 66% | 1003.9 hPa | 0 mm | - | - | - |
| 1777081805 | 24.44° C | 66% | 1003.9 hPa | 0 mm | - | - | - |
| 1777081508 | 24.44° C | 66% | 1003.9 hPa | 0 mm | - | - | - |
| 1777081205 | 25° C | 64% | 1003.9 hPa | 0 mm | - | - | - |
| 1777080910 | 25° C | 64% | 1003.6 hPa | 0 mm | - | - | - |
* Rain latest hour (hover to see other rain measurements)
** Current wind speed in m/s (hover to see current wind gust speed)